| time (UTC) | temp F | wind direction | speed knots | gust knots | rain 1hr in | rain 24hr in | rain mn in | humidity % | barometer mb |
| 20260508024546 | 50 | 28 | 0.0 | 0.0 | 0.00 | 0.05 | 0.00 | 79 | 1015.6 |
| 20260508023040 | 50 | 28 | 0.0 | 0.9 | 0.00 | 0.05 | 0.00 | 78 | 1015.5 |
| 20260508021544 | 50 | 28 | 0.0 | 0.0 | 0.00 | 0.05 | 0.00 | 77 | 1015.5 |
| 20260508020039 | 50 | 28 | 0.0 | 0.9 | 0.00 | 0.05 | 0.00 | 77 | 1015.5 |
| 20260508014554 | 51 | 28 | 0.0 | 0.0 | 0.00 | 0.05 | 0.00 | 76 | 1015.4 |
| 20260508013049 | 51 | 28 | 0.0 | 0.0 | 0.00 | 0.05 | 0.00 | 76 | 1015.5 |
| 20260508011548 | 51 | 28 | 0.0 | 0.9 | 0.00 | 0.05 | 0.00 | 76 | 1015.5 |
| 20260508010048 | 51 | 28 | 0.0 | 0.9 | 0.00 | 0.05 | 0.00 | 75 | 1015.5 |
| 20260508004542 | 51 | 28 | 0.0 | 0.9 | 0.00 | 0.05 | 0.00 | 75 | 1015.5 |
| 20260508003055 | 51 | 28 | 0.0 | 0.9 | 0.00 | 0.05 | 0.00 | 75 | 1015.6 |
| 20260508001542 | 51 | 28 | 0.0 | 0.9 | 0.00 | 0.05 | 0.00 | 75 | 1015.6 |
| 20260508000043 | 51 | 28 | 0.0 | 1.7 | 0.00 | 0.05 | 0.00 | 76 | 1015.6 |
| 20260507234553 | 51 | 28 | 0.0 | 0.9 | 0.00 | 0.05 | 0.00 | 77 | 1015.8 |
| 20260507233051 | 51 | 28 | 0.0 | 0.9 | 0.00 | 0.05 | 0.00 | 79 | 1015.7 |
| 20260507231548 | 51 | 28 | 0.0 | 0.0 | 0.00 | 0.05 | 0.00 | 80 | 1015.7 |
| 20260507230047 | 51 | 28 | 0.0 | 0.9 | 0.00 | 0.05 | 0.00 | 81 | 1015.8 |
| 20260507224552 | 52 | 28 | 0.0 | 0.0 | 0.00 | 0.05 | 0.05 | 81 | 1015.8 |
| 20260507223035 | 52 | 28 | 0.0 | 0.0 | 0.00 | 0.05 | 0.05 | 81 | 1015.8 |
| 20260507221535 | 52 | 28 | 0.0 | 0.0 | 0.00 | 0.05 | 0.05 | 81 | 1015.8 |
| 20260507220035 | 52 | 28 | 0.0 | 0.0 | 0.00 | 0.05 | 0.05 | 81 | 1015.8 |
| 20260507214551 | 53 | 28 | 0.0 | 0.0 | 0.00 | 0.05 | 0.05 | 82 | 1015.9 |
| 20260507213048 | 53 | 28 | 0.0 | 0.0 | 0.00 | 0.05 | 0.05 | 81 | 1015.8 |
| 20260507211601 | 53 | 28 | 0.0 | 0.0 | 0.00 | 0.05 | 0.05 | 80 | 1015.7 |
| 20260507210047 | 53 | 28 | 0.0 | 0.0 | 0.00 | 0.05 | 0.05 | 80 | 1015.6 |
| 20260507204540 | 53 | 28 | 0.0 | 0.9 | 0.00 | 0.05 | 0.05 | 80 | 1015.5 |
| 20260507203041 | 53 | 28 | 0.0 | 0.9 | 0.00 | 0.05 | 0.05 | 80 | 1015.4 |
| 20260507201538 | 53 | 28 | 0.0 | 0.9 | 0.00 | 0.05 | 0.05 | 80 | 1015.3 |
| 20260507200038 | 54 | 28 | 0.0 | 0.0 | 0.00 | 0.05 | 0.05 | 80 | 1015.2 |
| 20260507194555 | 54 | 28 | 0.0 | 0.0 | 0.00 | 0.05 | 0.05 | 79 | 1015.1 |
| 20260507193049 | 54 | 28 | 0.0 | 0.9 | 0.00 | 0.05 | 0.05 | 79 | 1015.0 |
| 20260507191551 | 54 | 28 | 0.0 | 1.7 | 0.00 | 0.05 | 0.05 | 79 | 1014.9 |
| 20260507190048 | 54 | 28 | 0.9 | 1.7 | 0.00 | 0.05 | 0.05 | 79 | 1014.9 |
| 20260507184541 | 55 | 28 | 0.0 | 0.0 | 0.00 | 0.05 | 0.05 | 78 | 1014.9 |
| 20260507183040 | 54 | 28 | 0.0 | 3.5 | 0.00 | 0.05 | 0.05 | 77 | 1014.9 |
| 20260507181539 | 54 | 28 | 0.0 | 3.5 | 0.00 | 0.05 | 0.05 | 76 | 1014.8 |
| 20260507180045 | 54 | 28 | 0.0 | 3.5 | 0.00 | 0.05 | 0.05 | 76 | 1014.7 |
| 20260507174556 | 55 | 28 | 1.7 | 4.3 | 0.00 | 0.05 | 0.05 | 77 | 1014.7 |
| 20260507173055 | 55 | 29 | 0.9 | 4.3 | 0.00 | 0.05 | 0.05 | 79 | 1014.7 |
| 20260507171555 | 55 | 29 | 0.9 | 4.3 | 0.02 | 0.05 | 0.05 | 79 | 1014.7 |
| 20260507170050 | 55 | 29 | 0.9 | 4.3 | 0.05 | 0.05 | 0.05 | 80 | 1014.7 |
| 20260507164551 | 55 | 29 | 1.7 | 4.3 | 0.05 | 0.05 | 0.05 | 80 | 1014.7 |
| 20260507163044 | 54 | 29 | 1.7 | 4.3 | 0.05 | 0.05 | 0.05 | 77 | 1014.8 |
| 20260507161543 | 56 | 28 | 0.9 | 2.6 | 0.02 | 0.02 | 0.02 | 77 | 1014.9 |
| 20260507160043 | 56 | 30 | 0.9 | 3.5 | 0.00 | 0.00 | 0.00 | 75 | 1014.8 |
| 20260507154553 | 57 | 30 | 3.5 | 5.2 | 0.00 | 0.00 | 0.00 | 74 | 1014.8 |
| 20260507153058 | 57 | 29 | 1.7 | 4.3 | 0.00 | 0.00 | 0.00 | 75 | 1014.8 |
| 20260507151550 | 56 | 29 | 0.0 | 4.3 | 0.00 | 0.00 | 0.00 | 75 | 1014.9 |
| 20260507150050 | 56 | 230 | 0.9 | 3.5 | 0.00 | 0.00 | 0.00 | 75 | 1014.9 |
| 20260507144601 | 56 | 228 | 0.0 | 3.5 | 0.00 | 0.00 | 0.00 | 73 | 1015.0 |
| 20260507143105 | 57 | 228 | 0.9 | 3.5 | 0.00 | 0.00 | 0.00 | 70 | 1015.1 |
| 20260507141559 | 57 | 228 | 0.9 | 3.5 | 0.00 | 0.00 | 0.00 | 67 | 1015.2 |
| 20260507140110 | 58 | 228 | 0.0 | 0.0 | 0.00 | 0.00 | 0.00 | 65 | 1015.2 |
| 20260507134541 | 58 | 228 | 0.0 | 0.9 | 0.00 | 0.00 | 0.00 | 64 | 1015.2 |
| 20260507133041 | 59 | 228 | 0.0 | 2.6 | 0.00 | 0.00 | 0.00 | 60 | 1015.2 |
| 20260507131545 | 59 | 228 | 0.9 | 7.0 | 0.00 | 0.00 | 0.00 | 59 | 1015.2 |
| 20260507130039 | 59 | 232 | 0.9 | 3.5 | 0.00 | 0.00 | 0.00 | 59 | 1015.3 |
| 20260507124536 | 58 | 232 | 1.7 | 6.1 | 0.00 | 0.00 | 0.00 | 60 | 1015.3 |
| 20260507123035 | 58 | 234 | 0.9 | 7.8 | 0.00 | 0.00 | 0.00 | 59 | 1015.3 |
| 20260507121535 | 58 | 240 | 0.0 | 1.7 | 0.00 | 0.00 | 0.00 | 59 | 1015.3 |
| 20260507120034 | 59 | 242 | 0.0 | 2.6 | 0.00 | 0.00 | 0.00 | 58 | 1015.4 |
| 20260507114553 | 59 | 243 | 0.0 | 4.3 | 0.00 | 0.00 | 0.00 | 58 | 1015.5 |
| 20260507113051 | 59 | 243 | 0.0 | 4.3 | 0.00 | 0.00 | 0.00 | 58 | 1015.5 |
| 20260507111550 | 59 | 242 | 0.0 | 1.7 | 0.00 | 0.00 | 0.00 | 60 | 1015.4 |
| 20260507110052 | 59 | 246 | 0.0 | 0.9 | 0.00 | 0.00 | 0.00 | 63 | 1015.6 |
| 20260507104555 | 59 | 246 | 0.0 | 2.6 | 0.00 | 0.00 | 0.00 | 65 | 1015.6 |
| 20260507103050 | 59 | 244 | 0.0 | 2.6 | 0.00 | 0.00 | 0.00 | 67 | 1015.7 |
| 20260507101601 | 58 | 243 | 0.9 | 6.1 | 0.00 | 0.00 | 0.00 | 68 | 1015.7 |
| 20260507100044 | 57 | 31 | 0.0 | 2.6 | 0.00 | 0.00 | 0.00 | 70 | 1015.8 |
| 20260507094556 | 56 | 31 | 0.0 | 2.6 | 0.00 | 0.00 | 0.00 | 71 | 1015.8 |
| 20260507093042 | 55 | 31 | 0.0 | 3.5 | 0.00 | 0.00 | 0.00 | 71 | 1015.8 |
| 20260507091554 | 55 | 31 | 0.0 | 1.7 | 0.00 | 0.00 | 0.00 | 72 | 1015.8 |
| 20260507090043 | 54 | 30 | 0.0 | 1.7 | 0.00 | 0.00 | 0.00 | 74 | 1016.0 |
| 20260507084501 | 53 | 30 | 0.0 | 2.6 | 0.00 | 0.00 | 0.00 | 75 | 1016.0 |
| 20260507083105 | 52 | 30 | 0.0 | 0.9 | 0.00 | 0.00 | 0.00 | 76 | 1016.2 |
| 20260507081558 | 51 | 30 | 0.0 | 1.7 | 0.00 | 0.00 | 0.00 | 78 | 1016.1 |
| 20260507080051 | 50 | 30 | 0.0 | 1.7 | 0.00 | 0.00 | 0.00 | 79 | 1016.1 |
| 20260507074555 | 49 | 30 | 0.0 | 2.6 | 0.00 | 0.00 | 0.00 | 80 | 1016.0 |
| 20260507073101 | 48 | 30 | 0.0 | 0.9 | 0.00 | 0.00 | 0.00 | 81 | 1016.1 |
| 20260507071547 | 48 | 30 | 0.0 | 1.7 | 0.00 | 0.00 | 0.00 | 82 | 1016.0 |
| 20260507070114 | 47 | 30 | 0.0 | 0.9 | 0.00 | 0.00 | 0.00 | 82 | 1015.8 |
| 20260507064547 | 47 | 30 | 0.0 | 1.7 | 0.00 | 0.00 | 0.00 | 83 | 1015.7 |
| 20260507063040 | 47 | 30 | 0.0 | 1.7 | 0.00 | 0.00 | 0.00 | 83 | 1015.8 |
| 20260507061539 | 47 | 30 | 0.0 | 0.9 | 0.00 | 0.00 | 0.00 | 83 | 1015.8 |
| 20260507060037 | 46 | 30 | 0.0 | 0.9 | 0.00 | 0.00 | 0.00 | 83 | 1015.7 |
| 20260507054604 | 46 | 30 | 0.0 | 1.7 | 0.00 | 0.00 | 0.00 | 83 | 1015.5 |
| 20260507053053 | 46 | 30 | 0.0 | 0.9 | 0.00 | 0.00 | 0.00 | 83 | 1015.5 |
| 20260507051548 | 46 | 30 | 0.0 | 1.7 | 0.00 | 0.00 | 0.00 | 83 | 1015.5 |
| 20260507050046 | 46 | 30 | 0.0 | 1.7 | 0.00 | 0.00 | 0.00 | 83 | 1015.5 |
| 20260507044546 | 46 | 30 | 0.0 | 0.9 | 0.00 | 0.00 | 0.00 | 83 | 1015.4 |
| 20260507043041 | 46 | 30 | 0.0 | 1.7 | 0.00 | 0.00 | 0.00 | 82 | 1015.3 |
| 20260507041538 | 46 | 30 | 0.0 | 5.2 | 0.00 | 0.00 | 0.00 | 82 | 1015.3 |
| 20260507040036 | 46 | 30 | 0.0 | 1.7 | 0.00 | 0.00 | 0.00 | 81 | 1015.4 |
| 20260507034545 | 46 | 30 | 0.0 | 1.7 | 0.00 | 0.00 | 0.00 | 81 | 1015.4 |
| 20260507033037 | 47 | 30 | 0.0 | 4.3 | 0.00 | 0.00 | 0.00 | 80 | 1015.3 |
| 20260507031534 | 47 | 30 | 0.0 | 1.7 | 0.00 | 0.00 | 0.00 | 80 | 1015.4 |
| 20260507030038 | 47 | 30 | 0.0 | 4.3 | 0.00 | 0.00 | 0.00 | 79 | 1015.4 |